Find Starlink 3956

NORAD ID: 52560 Int'l Des: 2022-051 Owner: SPXS Country: US Constellation: starlink operational
LEOCIRCULAR

当前视图

正在加载3D地球...

About Starlink 3956

Starlink 3956 (NORAD 52560) is a starlink constellation satellite (v1.5) launched May 13, 2022 by SPXS of US. It operates in LEO, CIRCULAR orbit with a mass of 297.00 kg.

关于 Starlink 3956

正在加载描述...

即将过境

Passes for default location (London). Set your location on the main map for personalized predictions.

高度历史

Loading altitude history...

两行轨道根数

1 52560U 22051AD 26195.49816408 .00001253 00000-0 96782-4 0 9998
2 52560 53.1585 269.5948 0001087 84.2777 275.8338 15.08845714230724
Epoch: Jul 14, 2026 • Age: 11 hours

当前状态

高度 558.8 km
远地点 / 近地点 N/A
速度 7.58 km/s
星下点 -52.83°S, 85.33°W
发射日期 May 13, 2022
运行时间 4.1 years
类型 internet

技术详情

分类 Payload
质量 297.00 kg
干质量 275.00 kg
总质量 297.00 kg
长度 0.20 m
直径 2.80 m
跨度 9.00 m
形状 Box + pan
制造商 SPXS
平台类型 Starlink
阶段状态 In Orbit
所有者/国家 SPXS/US

Most Searched